Monarch Pass, CO

5:50 AM MST on December 12, 2017 (GMT -0700)
Monarch Pass

Weather History for KMYP - September, 2013

Change the Weather History Date:

Thursday, September 19, 2013

  Actual Average (KALS) Record (KALS)
Temperature  
Mean Temperature 42 °F -  
Max Temperature 50 °F 72 °F 84 °F (2010)
Min Temperature 33 °F 35 °F 20 °F (1988)
Degree Days  
Heating Degree Days 24    
Moisture  
Dew Point 29 °F    
Average Humidity 71    
Maximum Humidity 100    
Minimum Humidity 35    
Precipitation  
Precipitation 0.00 in - - ()
Sea Level Pressure  
Sea Level Pressure 30.52 in    
Wind  
Wind Speed 22 mph (WSW)    
Max Wind Speed 31 mph    
Max Gust Speed 39 mph    
Visibility 9 miles    
Events Fog , Snow , Thunderstorm    
Averages and records for this station are not official NWS values.
T = Trace of Precipitation, MM = Missing Value Source: NWS Daily Summary

Daily Weather History Graph

Daily Weather History Graph

Search for Another Location

Airport or City:

Trip Planner

Search our weather history database for the weather conditions in past years. The results will help you decide how hot, cold, wet, or windy it might be!

Date:

Astronomy

Sep. 19, 2013 Rise Set
Actual Time 6:50 AM MDT 7:06 PM MDT
Civil Twilight 6:23 AM MDT 7:32 PM MDT
Nautical Twilight 5:52 AM MDT 8:03 PM MDT
Astronomical Twilight 5:21 AM MDT 8:34 PM MDT
Moon 7:07 PM MDT (9/19) 7:01 AM MDT (9/19)
Length of Visible Light 13h 08m
Length of Day
12h 15m
Full, 100% of the Moon is Illuminated
Sep 19
Full
Sep 26
Last Quarter
Oct 4
New
Oct 11
First Quarter
Oct 18
Full

Hourly Weather History & Observations

Time (MDT) Temp. Windchill Dew Point Humidity Pressure Visibility Wind Dir Wind Speed Gust Speed Precip Events Conditions
12:09 AM 33.8 °F 21.0 °F 33.8 °F 100% 30.48 in 0.2 mi WSW 25.3 mph - N/A Fog Fog
12:29 AM 33.8 °F 20.5 °F 33.8 °F 100% 30.48 in 0.2 mi WSW 27.6 mph 35.7 mph N/A Fog Fog
12:49 AM 33.8 °F 20.5 °F 33.8 °F 100% 30.48 in 0.2 mi SW 27.6 mph - N/A Fog Fog
1:09 AM 33.8 °F 22.5 °F 33.8 °F 100% 30.48 in 0.2 mi SSW 19.6 mph - N/A Fog Fog
1:29 AM 35.6 °F 24.5 °F 33.8 °F 93% 30.48 in 0.8 mi SW 20.7 mph - N/A Thunderstorm Overcast
1:49 AM 35.6 °F 24.2 °F 33.8 °F 93% 30.48 in 10.0 mi SW 21.9 mph - N/A   Scattered Clouds
2:09 AM 35.6 °F 24.8 °F 33.8 °F 93% 30.48 in 10.0 mi SW 19.6 mph - N/A Thunderstorm Clear
2:29 AM 35.6 °F 25.2 °F 33.8 °F 93% 30.48 in 10.0 mi SW 18.4 mph - N/A   Clear
2:49 AM 35.6 °F 24.2 °F 33.8 °F 93% 30.47 in 10.0 mi WSW 21.9 mph - N/A   Clear
3:09 AM 35.6 °F 24.8 °F 33.8 °F 93% 30.49 in 10.0 mi West 19.6 mph - N/A Thunderstorm Mostly Cloudy
3:29 AM 35.6 °F 23.7 °F 32.0 °F 87% 30.48 in 10.0 mi West 24.2 mph 38.0 mph N/A Snow , Thunderstorm Light Thunderstorms and Snow
3:49 AM 35.6 °F 24.5 °F 32.0 °F 87% 30.47 in 10.0 mi West 20.7 mph - N/A   Mostly Cloudy
4:09 AM 35.6 °F 24.8 °F 32.0 °F 87% 30.46 in 10.0 mi West 19.6 mph - N/A Thunderstorm Mostly Cloudy
4:29 AM 35.6 °F 24.8 °F 32.0 °F 87% 30.46 in 10.0 mi West 19.6 mph - N/A   Scattered Clouds
4:49 AM 35.6 °F 24.8 °F 32.0 °F 87% 30.46 in 10.0 mi WSW 19.6 mph - N/A Thunderstorm Mostly Cloudy
5:09 AM 35.6 °F 23.4 °F 32.0 °F 87% 30.47 in 10.0 mi WSW 25.3 mph 33.4 mph N/A   Scattered Clouds
5:29 AM 35.6 °F 23.4 °F 32.0 °F 87% 30.46 in 10.0 mi WSW 25.3 mph - N/A   Scattered Clouds
5:49 AM 35.6 °F 23.7 °F 32.0 °F 87% 30.48 in 10.0 mi WSW 24.2 mph - N/A   Mostly Cloudy
6:09 AM 35.6 °F 23.7 °F 32.0 °F 87% 30.47 in 10.0 mi WSW 24.2 mph 33.4 mph N/A   Overcast
6:29 AM 35.6 °F 23.7 °F 32.0 °F 87% 30.47 in 10.0 mi WSW 24.2 mph 28.8 mph N/A   Scattered Clouds
6:49 AM 35.6 °F 23.4 °F 32.0 °F 87% 30.47 in 10.0 mi WSW 25.3 mph - N/A   Scattered Clouds
7:09 AM 35.6 °F 23.2 °F 32.0 °F 87% 30.46 in 10.0 mi WSW 26.5 mph - N/A   Clear
7:29 AM 35.6 °F 23.4 °F 32.0 °F 87% 30.47 in 10.0 mi West 25.3 mph - N/A   Mostly Cloudy
7:49 AM 35.6 °F 24.0 °F 33.8 °F 93% 30.48 in 10.0 mi West 23.0 mph - N/A   Overcast
8:09 AM 37.4 °F 26.9 °F 33.8 °F 87% 30.49 in 10.0 mi West 20.7 mph - N/A   Overcast
8:29 AM 37.4 °F 27.8 °F 33.8 °F 87% 30.51 in 10.0 mi West 17.3 mph - N/A   Overcast
8:49 AM 37.4 °F 27.2 °F 35.6 °F 93% 30.51 in 10.0 mi West 19.6 mph - N/A   Overcast
9:09 AM 37.4 °F 26.9 °F 35.6 °F 93% 30.51 in 10.0 mi West 20.7 mph - N/A   Overcast
9:29 AM 37.4 °F 26.4 °F 35.6 °F 93% 30.51 in 3.0 mi West 23.0 mph - N/A   Overcast
9:49 AM 39.2 °F 29.8 °F 37.4 °F 93% 30.53 in 0.2 mi WSW 18.4 mph 24.2 mph N/A Fog Fog
10:09 AM 39.2 °F 29.8 °F 37.4 °F 93% 30.53 in 0.2 mi WSW 18.4 mph 25.3 mph N/A Fog Fog
10:29 AM 41.0 °F 31.4 °F 37.4 °F 87% 30.53 in 0.5 mi WSW 21.9 mph 26.5 mph N/A Fog Fog
10:49 AM 41.0 °F 31.6 °F 37.4 °F 87% 30.54 in 10.0 mi SW 20.7 mph 29.9 mph N/A   Overcast
11:09 AM 42.8 °F 32.9 °F 37.4 °F 81% 30.53 in 10.0 mi SW 26.5 mph 32.2 mph N/A   Overcast
11:29 AM 44.6 °F 35.9 °F 37.4 °F 76% 30.54 in 10.0 mi WSW 23.0 mph 28.8 mph N/A   Overcast
11:49 AM 44.6 °F 36.1 °F 35.6 °F 71% 30.54 in 10.0 mi SW 21.9 mph 34.5 mph N/A   Overcast
12:09 PM 42.8 °F 32.5 °F 33.8 °F 70% 30.53 in 10.0 mi West 28.8 mph 35.7 mph N/A   Mostly Cloudy
12:12 PM 42.8 °F 32.3 °F 33.8 °F 70% 30.53 in 10.0 mi West 29.9 mph 33.4 mph N/A   Mostly Cloudy
4:09 PM 50.0 °F - 23.0 °F 35% 30.53 in 10.0 mi West 27.6 mph 39.1 mph N/A   Clear
4:29 PM 50.0 °F - 26.6 °F 40% 30.53 in 10.0 mi West 28.8 mph 36.8 mph N/A   Clear
4:49 PM 50.0 °F - 26.6 °F 40% 30.53 in 10.0 mi West 26.5 mph 36.8 mph N/A   Clear
5:09 PM 50.0 °F - 28.4 °F 43% 30.53 in 10.0 mi West 31.1 mph 39.1 mph N/A   Clear
5:29 PM 48.2 °F - 28.4 °F 46% 30.53 in 10.0 mi West 25.3 mph 36.8 mph N/A   Clear
5:49 PM 48.2 °F - 26.6 °F 43% 30.53 in 10.0 mi West 28.8 mph 36.8 mph N/A   Clear
6:09 PM 46.4 °F 37.9 °F 26.6 °F 46% 30.54 in 10.0 mi West 25.3 mph 34.5 mph N/A   Clear
6:29 PM 46.4 °F 38.5 °F 26.6 °F 46% 30.55 in 10.0 mi West 21.9 mph 31.1 mph N/A   Clear
6:49 PM 44.6 °F 35.3 °F 24.8 °F 46% 30.55 in 10.0 mi West 26.5 mph - N/A   Clear
7:09 PM 42.8 °F 34.3 °F 24.8 °F 49% 30.56 in 10.0 mi West 19.6 mph 26.5 mph N/A   Clear
7:29 PM 42.8 °F 35.1 °F 24.8 °F 49% 30.56 in 10.0 mi WSW 16.1 mph - N/A   Clear
7:49 PM 41.0 °F 32.5 °F 24.8 °F 53% 30.56 in 10.0 mi WSW 17.3 mph - N/A   Clear
8:09 PM 41.0 °F 31.6 °F 23.0 °F 49% 30.57 in 10.0 mi West 20.7 mph - N/A   Clear
8:29 PM 41.0 °F 32.2 °F 21.2 °F 45% 30.58 in 10.0 mi West 18.4 mph - N/A   Clear
8:49 PM 41.0 °F 33.1 °F 19.4 °F 42% 30.58 in 10.0 mi West 15.0 mph - N/A   Clear
9:09 PM 41.0 °F 33.5 °F 17.6 °F 39% 30.60 in 10.0 mi West 13.8 mph - N/A   Clear
9:29 PM 41.0 °F 32.8 °F 17.6 °F 39% 30.59 in 10.0 mi West 16.1 mph - N/A   Clear
9:49 PM 39.2 °F 31.2 °F 14.0 °F 36% 30.60 in 10.0 mi West 13.8 mph - N/A   Clear
10:09 PM 39.2 °F 31.6 °F 15.8 °F 39% 30.60 in 10.0 mi WNW 12.7 mph - N/A   Clear
10:29 PM 37.4 °F 29.3 °F 17.6 °F 45% 30.60 in 10.0 mi West 12.7 mph - N/A   Clear
10:49 PM 37.4 °F 28.9 °F 19.4 °F 48% 30.60 in 10.0 mi West 13.8 mph - N/A   Clear
11:09 PM 37.4 °F 28.9 °F 15.8 °F 41% 30.60 in 10.0 mi West 13.8 mph - N/A   Clear
11:29 PM 37.4 °F 29.3 °F 14.0 °F 38% 30.60 in 10.0 mi West 12.7 mph - N/A   Clear
11:49 PM 37.4 °F 29.8 °F 14.0 °F 38% 30.60 in 10.0 mi West 11.5 mph - N/A   Clear